User: anonymous   Login
Location: Petruro
(41.0333°N, 14.7833°E)
Time: 08:32:45
(UTC+00:00)
Language:

FLOCK EP 4 - Orbit

View from above orbital plane
View from above orbital plane
View from above satellite
View from above satellite

Ground track
Ground track

The orbit data is extracted from the following two-line orbital elements,

1 46821U 20077J   22029.11573014  .00003076  00000-0  15000-3 0  9999
2 46821  97.4433  94.7539 0015618 139.1899 221.0509 15.18960361 69320
Epoch (UTC): 29 January 2022 02:46:39
Eccentricity: 0.0015618
inclination: 97.4433°
perigee height: 498 km
apogee height: 520 km
right ascension of ascending node: 94.7539°
argument of perigee: 139.1899°
revolutions per day: 15.18960361
mean anomaly at epoch: 221.0509°
orbit number at epoch: 6932

The dashed part of the orbit path shows where the satellite is in the earth's shadow,  

DLR